Regional Weather Roundup
Issued by NWS

Home | Current Version | Previous Version | Graphics & Text | Print | Product List | Glossary On
Versions: 1 2 3 4 5 6 7 8 9 10 11 12 13 14 15 16 17 18 19 20 21 22 23 24 25 26 27 28 29 30 31 32 33 34 35 36 37 38 39 40 41 42 43 44 45 46 47 48 49 50
418
ASUS43 KMKX 312321
RWRWI

WISCONSIN REGIONAL WEATHER ROUNDUP
NATIONAL WEATHER SERVICE MILWAUKEE/SULLIVAN WI
600 PM CDT TUE MAY 31 2016

NOTE: "FAIR" INDICATES FEW OR NO CLOUDS BELOW 12,000 FEET WITH NO
SIGNIFICANT WEATHER AND/OR OBSTRUCTIONS TO VISIBILITY.

WIZ001-002-006>008-014>016-023>028-010000-
NORTHWEST WISCONSIN

CITY           SKY/WX    TMP DP  RH WIND       PRES   REMARKS
SUPERIOR ARPT  CLOUDY    43  41  94 E16G24    29.92S
ASHLAND        RAIN      48  47  96 CALM      29.93R FOG
HAYWARD        LGT RAIN  66  63  90 SE7       29.86F
SIREN          CLOUDY    70  60  72 S3        29.83S
CUMBERLAND     RAIN      64  63  94 SE5       29.85S
RICE LAKE      LGT RAIN  64  61  90 E6        29.87S
CHETEK         LGT RAIN  64  63  97 E7        29.87R
LADYSMITH      LGT RAIN  61  58  92 SE8       29.92R
EAU CLAIRE     RAIN      63  61  93 E8        29.87R
MENOMONIE      LGT RAIN  64  64  99 SE7       29.86S
NEW RICHMOND   CLOUDY    67  60  79 SW9       29.84F
OSCEOLA        CLOUDY    69  63  80 S7        29.85F
$$

WIZ003>005-009-010-017-018-010000-
NORTH CENTRAL WISCONSIN

CITY           SKY/WX    TMP DP  RH WIND       PRES   REMARKS
MANITOWISH WTR CLOUDY    68  56  65 S10       29.91S
ARBOR VITAE    PTSUNNY   71  58  63 S18G24    29.92S
WOODRUFF       PTSUNNY   71  58  63 S18G24    29.92S
RHINELANDER    CLOUDY    67  54  63 SE12G17   29.94S
EAGLE RIVER      N/A     67  51  55 SE13G20   29.94S
LAND O LAKES   CLOUDY    69  51  52 S14G20    29.94F
PHILLIPS       CLOUDY    69  59  69 SE15G23   29.89S
TOMAHAWK       CLOUDY    66  56  70 SE3       29.93S
MEDFORD        CLOUDY    66  58  76 SE10G17   29.91R
MERRILL        CLOUDY    65  58  77 SE9       29.94S
$$

WIZ029-030-035-036-043>047-010000-
CENTRAL WISCONSIN

CITY           SKY/WX    TMP DP  RH WIND       PRES   REMARKS
WAUSAU         CLOUDY    71  58  63 SE9       29.91F
MOSINEE        MOSUNNY   68  61  77 SE8G17    29.92F
MARSHFIELD     CLOUDY    70  59  68 S15       29.90S
STEVENS POINT  PTSUNNY   69  57  67 SE13G20   29.92F
WAUPACA        CLOUDY    72  62  71 SE10      29.93F
WAUTOMA        PTSUNNY  N/A N/A N/A SE10      29.93F
WISC RAPIDS    CLOUDY    71  59  65 SE10      29.92S
CAMP DOUGLAS   PTSUNNY   72  68  88 SE10G20   29.89S
$$

WIZ011>013-019>022-031-037>040-048>050-010000-
NORTHEAST WISCONSIN

CITY           SKY/WX    TMP DP  RH WIND       PRES   REMARKS
ANTIGO         CLOUDY    63  55  76 SE13      29.95S
SHAWANO        CLOUDY    68  57  68 SE8       29.94F
OCONTO         CLOUDY    63  55  74 E5        29.97F
STURGEON BAY   CLOUDY    64  52  63 E8        29.99F
GREEN BAY      CLOUDY    69  57  65 SE7       29.96F
MANITOWOC      PTSUNNY   62  52  69 E5        29.99F
APPLETON       PTSUNNY   66  57  72 SE9       29.94F
CLINTONVILLE   LGT RAIN  68  57  68 SE7       29.93F
OSHKOSH        CLOUDY    67  59  75 SE14      29.94F
$$

WIZ032>034-041-042-053>061-010000-
SOUTHWEST WISCONSIN

CITY           SKY/WX    TMP DP  RH WIND       PRES   REMARKS
LA CROSSE      RAIN      65  63  93 E8        29.88F FOG
SPARTA         LGT RAIN  70  62  74 SE6       29.89R
VIROQUA        CLOUDY    71  61  72 SE10G16   29.88F
BOSCOBEL       NOT AVBL
PRAIRIE DU CHI PTSUNNY   73  62  66 SE10      29.85F
PLATTEVILLE    CLOUDY    71  64  79 SE13      29.91F
$$

WIZ056-057-062-063-064-067-068-010000-
SOUTH CENTRAL WISCONSIN

CITY           SKY/WX    TMP DP  RH WIND       PRES   REMARKS
REEDSBURG      CLOUDY    70  62  75 SE7       29.91S
BARABOO/DELLS  CLOUDY    70  59  68 SE14      29.92S
LONE ROCK      CLOUDY    72  62  71 SE14G21   29.91F
MINERAL POINT  CLOUDY    70  63  78 SE12G18   29.92S
MADISON        PTSUNNY   71  60  68 SE13      29.93F
MIDDLETON      MOSUNNY   72  60  67 S15       29.93F
WATERTOWN      CLOUDY    65  63  92 S9G18     29.95F
MONROE         CLOUDY    68  61  77 SE12G18   29.93F
JANESVILLE     PTSUNNY   70  63  78 SE14G20   29.94F
$$

WIZ051-052-058>065-066-070>072-010000-
SOUTHEAST WISCONSIN

CITY           SKY/WX    TMP DP  RH WIND       PRES   REMARKS
MILWAUKEE      LGT RAIN  69  60  73 SW7       29.99F
WAUKESHA       PTSUNNY   63  61  94 S6        30.00F
MILWAUKEE/TIMM MOSUNNY   66  59  77 SW5       30.01F
RACINE         LGT RAIN  68  61  78 S3        30.02F
BURLINGTON     PTSUNNY   64  62  93 E5        29.99F
KENOSHA        LGT RAIN  66  62  87 SE6       30.01F
FOND DU LAC    CLOUDY    67  60  78 SE13      29.95F
SHEBOYGAN      CLOUDY    63  53  70 E3        29.99F
WEST BEND      LGT RAIN  63  61  94 SE3       29.98F
JUNEAU         DRIZZLE   65  61  86 SE15G21   29.95F
$$

LSZ147-162-010000-
LAKE SUPERIOR

STATION/POSITION TIME  TEMP    WIND        PRES    WAVE
                       AIR SEA DIR/SP/G            HT/PER
                 (UTC) (F)     (DEG/KT/KT) (MB)    (FT/S)
W MID LAKE BUOY  2250   40 38   50/ 17/ 21 1013.3F   4/ 5
DEVILS ISLAND    2300   42      60/ 18/ 20 1013.3R
SAXON HARBOR     2240          190/  4/ 15 1012.9R
$$

LMZ867-665-643>646-010000-
LAKE MICHIGAN

STATION/POSITION TIME  TEMP    WIND        PRES    WAVE
                       AIR SEA DIR/SP/G            HT/PER
                 (UTC) (F)     (DEG/KT/KT) (MB)    (FT/S)
CHAMBERS ISLAND  2240   61      30/  5/  9 1015.9F
N MID LAKE BUOY  2250   52 49   60/  8/ 10 1015.7F   1
NORTHPORT PIER   2200   60      80/  4/  8 1016.6F
SISTER BAY       2120   67     150/  9/ 13   N/A
ALGOMA LAKESHORE 2202           70/ 10/ 12   N/A
KEWAUNEE LAKESHO 2200                      1015.7F
SHEBOYGAN LAKESH 2300   52     360/  2/  2 1016.3F
PORT WASHINGTON  2200   53      40/  8/ 10 1016.6F
S MID LAKE BUOY  2250   57 56  260/  6/ 17 1016.1R   1
KENOSHA   LAKESH 2300   66     160/  5/  6 1015.9F
$$

TC  - TEMPERATURE IN CELSIUS
VSB - VISIBILITY IN STATUTE MILES
WCI - WIND CHILL INDEX
HX  - HEAT INDEX





USA.gov is the U.S. government's official web portal to all federal, state and local government web resources and services.